DateTimeUTC,F1_A11,F1_S11,BsB_S11,BsG_S11,BsR_S11,BbsB_S11,BbsG_S11,BbsR_S11,BaB_A11,BaG_A11,BaR_A11,Tu_S11,T_S11,Uu_S11,U_S11,P_S11,T1_A11
2021-03-15T23:00:00Z,00000200,21000000,,,,,,,-000.04,0000.29,0000.30,17.2,24.5,00.4,00.3,0647.8,30.9
2021-03-15T23:01:00Z,00000200,21000000,,,,,,,0000.49,0000.09,-000.32,17.2,24.6,00.3,00.2,0647.8,30.9
2021-03-15T23:02:00Z,00000200,21000000,,,,,,,-000.49,-000.39,0000.05,17.2,24.6,00.3,00.2,0647.8,30.9
2021-03-15T23:03:00Z,00000200,61000000,,,,,,,0002.11,0001.97,0001.48,17.2,24.6,00.3,00.2,0647.8,30.9
2021-03-15T23:04:00Z,00000200,41000000,0000.37,0000.46,0000.35,0000.22,-000.06,0000.09,0000.57,0000.54,0000.50,17.3,24.4,01.0,00.7,0648.7,30.9
2021-03-15T23:05:00Z,00000200,01000000,0000.60,0000.09,0000.39,0000.63,0000.23,0000.10,0000.49,0000.62,0000.50,17.4,24.3,01.0,00.7,0648.8,30.9
2021-03-15T23:06:00Z,00000200,01000000,0000.66,0000.32,0000.43,0000.43,0000.22,0000.11,0000.42,0000.71,0000.34,17.3,24.3,01.0,00.6,0648.8,30.9
2021-03-15T23:07:00Z,00000200,01000000,0000.59,-000.04,0000.51,0000.15,0000.00,0000.25,0000.45,0000.33,0000.28,17.4,24.3,01.2,00.8,0648.8,30.9
2021-03-15T23:08:00Z,00000200,01000000,0000.30,0000.29,0000.32,0000.13,0000.19,0000.37,0000.45,0000.53,0000.63,17.3,24.3,00.9,00.6,0648.8,30.9
2021-03-15T23:09:00Z,00000200,01000000,0000.42,0000.31,0000.30,0000.21,0000.06,0000.30,0000.04,-000.10,-000.01,17.3,24.3,01.1,00.7,0648.8,30.9
2021-03-15T23:10:00Z,00000200,01000000,0000.47,0000.24,0000.18,0000.33,0000.28,0000.30,0001.59,0001.45,0001.24,17.3,24.2,01.0,00.6,0648.8,30.9
2021-03-15T23:11:00Z,00000200,01000000,0000.15,0000.26,0000.48,0000.60,0000.15,0000.19,0000.24,0000.21,0000.38,17.3,24.2,01.2,00.8,0648.8,30.9
2021-03-15T23:12:00Z,00000200,01000000,0000.88,0000.21,0000.15,0000.03,0000.15,0000.14,-001.07,-001.52,-001.07,17.3,24.2,01.0,00.6,0648.7,30.9
2021-03-15T23:13:00Z,00000200,01000000,0000.44,0000.29,0000.51,0000.21,0000.33,0000.21,0000.49,0000.81,0000.30,17.3,24.2,00.9,00.6,0648.8,30.9
2021-03-15T23:14:00Z,00000200,01000000,0001.06,0000.10,0000.43,0000.25,0000.22,0000.42,-000.45,-000.26,-000.20,17.3,24.2,00.9,00.6,0648.9,30.9
2021-03-15T23:15:00Z,00000200,01000000,0000.15,0000.07,0000.09,0000.81,0000.07,-000.01,-000.78,-000.47,-000.03,17.3,24.2,00.6,00.4,0648.8,30.9
2021-03-15T23:16:00Z,00000200,01000000,0000.27,0000.48,0000.50,0000.20,0000.24,0000.22,0001.89,0001.13,0000.64,17.3,24.2,00.7,00.4,0648.9,30.9
2021-03-15T23:17:00Z,00000200,01000000,0000.28,0000.02,-000.26,0000.03,0000.18,0000.09,-001.31,-000.74,-000.40,17.3,24.2,00.8,00.5,0648.9,30.9
2021-03-15T23:18:00Z,00000200,01000000,0000.57,0000.23,0000.10,0000.12,0000.21,0000.09,0000.18,0000.05,-000.04,17.3,24.2,00.5,00.3,0648.9,30.9
2021-03-15T23:19:00Z,00000200,01000000,0000.62,0000.36,0000.16,0000.43,0000.23,0000.21,0000.38,0000.37,0000.42,17.2,24.2,00.5,00.3,0648.8,30.9
2021-03-15T23:20:00Z,00000200,01000000,0000.24,0000.20,0000.41,-000.02,0000.19,-000.01,-000.12,-000.18,-000.21,17.2,24.2,00.4,00.3,0648.9,30.9
2021-03-15T23:21:00Z,00000200,01000000,-000.30,0000.46,0000.10,-000.11,0000.29,-000.05,0000.12,0000.43,0000.23,17.2,24.2,00.5,00.3,0648.9,30.9
2021-03-15T23:22:00Z,00000200,01000000,-000.27,0000.09,0000.17,0000.34,-000.02,0000.21,0000.16,-000.16,0000.27,17.2,24.2,00.5,00.3,0648.8,30.9
2021-03-15T23:23:00Z,00000200,01000000,0000.41,0000.15,-000.09,0000.08,0000.08,0000.23,0000.53,0000.46,-000.01,17.2,24.1,00.4,00.3,0648.8,30.9
2021-03-15T23:24:00Z,00000200,01000000,0000.06,0000.13,0000.27,0000.19,-000.05,-000.02,0000.21,0000.12,0000.27,17.2,24.1,00.5,00.3,0648.8,30.9
2021-03-15T23:25:00Z,00000200,01000000,0000.64,0000.17,0000.07,0000.09,0000.13,-000.09,-000.32,0000.20,0000.39,17.2,24.1,00.4,00.3,0648.8,30.9
2021-03-15T23:26:00Z,00000200,01000000,0000.52,0000.17,0000.19,0000.73,0000.31,0000.37,0000.40,0000.12,0000.09,17.3,24.1,00.5,00.3,0648.8,30.9
2021-03-15T23:27:00Z,00000200,01000000,0000.82,0000.25,0000.33,0000.11,0000.08,0000.19,0001.15,0000.93,0001.00,17.4,24.2,00.4,00.3,0648.8,31.0
2021-03-15T23:28:00Z,00000200,01000000,0000.50,0000.24,0000.28,0000.09,0000.20,0000.24,-000.46,-000.43,-000.69,17.5,24.2,00.5,00.4,0648.9,31.0
2021-03-15T23:29:00Z,00000200,01000000,0000.11,0000.33,0000.33,0000.43,-000.11,0000.03,-000.07,0000.29,0000.23,17.5,24.2,00.4,00.3,0648.8,31.0
2021-03-15T23:30:00Z,00000200,01000000,0000.45,0000.25,0000.26,-000.12,0000.05,0000.31,0000.27,0000.31,0000.28,17.6,24.2,00.4,00.2,0648.8,31.0
2021-03-15T23:31:00Z,00000200,01000000,0000.00,0000.38,0000.27,0000.34,0000.06,0000.29,-000.28,-000.71,-000.16,17.6,24.3,00.4,00.3,0648.8,31.0
2021-03-15T23:32:00Z,00000200,01000000,0000.12,0000.02,0000.00,0000.16,-000.01,0000.09,0000.44,0000.74,0000.23,17.5,24.3,00.4,00.2,0648.9,31.0
2021-03-15T23:33:00Z,00000200,01000000,0000.54,0000.12,0000.09,0000.71,0000.19,0000.08,0000.31,0000.50,0000.50,17.5,24.3,00.4,00.3,0648.9,31.0
2021-03-15T23:34:00Z,00000200,01000000,0000.18,0000.49,0000.04,-000.06,0000.05,0000.11,-000.29,-000.56,-000.27,17.5,24.3,00.4,00.3,0648.8,31.0
2021-03-15T23:35:00Z,00000200,01000000,0000.26,0000.28,0000.09,0000.20,0000.13,0000.34,0000.58,0000.35,0000.05,17.5,24.3,00.3,00.2,0648.8,31.0
2021-03-15T23:36:00Z,00000200,01000000,0000.67,0000.30,-000.04,0000.59,0000.03,0000.11,0000.33,0000.80,0000.32,17.5,24.3,00.4,00.3,0648.8,30.9
2021-03-15T23:37:00Z,00000200,01000000,0000.25,0000.21,0000.04,0000.42,0000.23,0000.17,0000.60,0000.28,0000.81,17.5,24.3,00.5,00.3,0648.9,30.9
2021-03-15T23:38:00Z,00000200,01000000,0000.93,0000.19,0000.20,0000.12,0000.08,-000.08,0000.09,0000.23,0000.09,17.5,24.2,00.4,00.3,0648.9,30.9
2021-03-15T23:39:00Z,00000200,01000000,0000.48,0000.17,-000.07,0000.12,0000.06,0000.20,-000.05,-000.33,-000.15,17.4,24.2,00.4,00.2,0648.9,30.9
2021-03-15T23:40:00Z,00000200,01000000,0000.19,0000.09,0000.32,0000.57,0000.20,0000.32,0000.59,0001.24,0000.77,17.4,24.2,00.4,00.3,0648.8,30.9
2021-03-15T23:41:00Z,00000200,01000000,-000.10,0000.35,0000.25,0000.22,0000.13,0000.15,0000.30,-000.48,-000.24,17.5,24.2,00.4,00.3,0648.8,31.0
2021-03-15T23:42:00Z,00000200,01000000,0000.21,0000.04,0000.43,0000.56,0000.26,0000.38,-000.20,0000.18,0000.51,17.5,24.2,00.4,00.3,0648.9,31.0
2021-03-15T23:43:00Z,00000200,01000000,0000.55,0000.26,0000.04,0000.44,0000.11,0000.06,0000.51,-000.07,-000.08,17.5,24.3,00.4,00.2,0648.8,31.0
2021-03-15T23:44:00Z,00000200,01000000,0000.66,0000.16,-000.01,0000.27,0000.21,-000.07,-000.46,-000.07,-000.06,17.6,24.3,00.4,00.3,0648.9,31.0
2021-03-15T23:45:00Z,00000200,01000000,0000.54,0000.04,0000.31,0000.59,0000.04,0000.13,0000.61,0000.29,0000.70,17.5,24.3,00.3,00.2,0648.9,31.0
2021-03-15T23:46:00Z,00000200,01000000,0000.34,0000.08,-000.01,0000.21,0000.10,-000.01,-000.31,0000.19,-000.40,17.5,24.3,00.4,00.3,0649.0,31.0
2021-03-15T23:47:00Z,00000200,01000000,0000.10,0000.15,0000.35,-000.06,0000.02,-000.06,0000.40,0000.47,0000.34,17.5,24.3,00.3,00.2,0648.9,31.0
2021-03-15T23:48:00Z,00000200,01000000,0000.46,0000.40,0000.02,0000.48,0000.19,0000.21,0000.43,0000.56,0000.62,17.5,24.3,00.3,00.2,0649.0,30.9
2021-03-15T23:49:00Z,00000200,01000000,0000.62,0000.17,0000.01,0000.06,0000.13,-000.24,0000.61,0000.21,0000.43,17.5,24.3,00.4,00.3,0648.9,30.9
2021-03-15T23:50:00Z,00000200,01000000,0000.31,0000.19,0000.05,-000.27,-000.17,0000.08,-000.00,0000.22,-000.21,17.5,24.2,00.3,00.2,0649.0,30.9
2021-03-15T23:51:00Z,00000200,01000000,0000.76,0000.26,0000.20,0000.34,0000.22,0000.01,0000.19,0000.08,-000.06,17.5,24.2,00.4,00.3,0649.0,30.9
2021-03-15T23:52:00Z,00000200,01000000,0000.45,0000.20,0000.17,0000.58,0000.13,0000.36,0001.21,0000.94,0000.92,17.5,24.2,00.5,00.3,0649.0,30.9
2021-03-15T23:53:00Z,00000200,01000000,0000.24,0000.37,0000.01,0000.03,0000.18,0000.00,0000.25,0000.24,0000.27,17.4,24.2,00.5,00.3,0649.0,30.9
2021-03-15T23:54:00Z,00000200,01000000,0000.40,0000.40,0000.09,0000.23,0000.05,-000.07,-000.68,-000.52,-000.34,17.4,24.2,00.5,00.3,0649.0,30.9
2021-03-15T23:55:00Z,00000200,01000000,-000.05,0000.34,0000.29,0000.24,0000.08,0000.08,0000.79,0000.62,0000.41,17.4,24.2,00.3,00.2,0649.1,30.9
2021-03-15T23:56:00Z,00000200,01000000,-000.21,0000.22,0000.38,-000.06,0000.24,0000.25,0000.09,0000.58,0000.10,17.4,24.2,00.3,00.2,0649.1,30.9
2021-03-15T23:57:00Z,00000200,41000000,,,,,,,0001.68,0000.99,0001.22,17.5,24.3,00.3,00.2,0649.1,30.9
2021-03-15T23:58:00Z,00000200,61000000,,,,,,,-000.89,-000.61,-000.84,17.1,24.3,00.3,00.2,0648.1,30.9
2021-03-15T23:59:00Z,00000200,21000000,,,,,,,-000.73,-000.68,0000.01,17.1,24.4,00.3,00.2,0648.1,30.9
